Date,TemperatureHighF,TemperatureAvgF,TemperatureLowF,DewpointHighF,DewpointAvgF,DewpointLowF,HumidityHigh,HumidityAvg,HumidityLow,PressureMaxIn,PressureMinIn,WindSpeedMaxMPH,WindSpeedAvgMPH,GustSpeedMaxMPH,PrecipitationSumIn
2013-1-1,21.0,16.0,7.0,14.0,6.2,-1.0,87,65,47,30.07,29.91,14,8,25,0.00
2013-1-2,26.0,19.7,13.0,17.0,13.5,3.0,85,76,61,30.02,29.90,9,4,16,0.00
2013-1-3,27.0,21.9,15.0,23.0,15.3,9.0,85,75,58,29.97,29.73,14,5,28,0.00
2013-1-4,38.0,28.3,21.0,26.0,15.7,10.0,74,59,42,30.06,29.73,13,7,29,0.00
2013-1-5,36.0,29.8,22.0,27.0,21.4,17.0,86,71,58,30.10,29.76,11,3,20,0.00
2013-1-6,32.0,24.8,18.0,29.0,19.2,11.0,93,79,70,30.15,29.72,15,6,30,0.00
2013-1-7,36.0,26.2,16.0,22.0,16.1,11.0,85,66,49,30.15,29.71,18,10,45,0.00
2013-1-8,40.0,31.2,20.0,33.0,23.8,17.0,90,75,52,30.06,29.76,11,5,26,0.00
2013-1-9,38.0,35.5,33.0,33.0,25.3,21.0,82,67,56,30.37,29.69,17,8,29,0.00
2013-1-10,40.0,31.7,22.0,32.0,23.2,19.0,87,72,48,30.41,29.96,11,6,26,0.00
2013-1-11,40.0,37.9,35.0,39.0,35.8,27.0,97,92,63,29.98,29.51,11,6,28,0.00
2013-1-12,44.0,39.4,30.0,43.0,32.9,19.0,99,79,54,29.86,29.42,16,8,30,0.00
2013-1-13,30.0,23.6,18.0,22.0,17.5,10.0,86,77,69,29.94,29.83,11,6,21,0.00
2013-1-14,25.0,17.5,12.0,11.0,6.4,1.0,78,62,39,30.25,29.92,14,7,19,0.00
2013-1-15,28.0,20.0,9.0,12.0,6.4,-1.0,64,56,42,30.28,29.88,13,7,28,0.00
2013-1-16,30.0,23.7,18.0,24.0,14.9,11.0,88,69,58,29.97,29.49,15,10,33,0.00
2013-1-17,17.0,9.8,6.0,13.0,1.1,-4.0,89,68,49,30.22,29.96,17,11,34,0.00
2013-1-18,18.0,10.1,1.0,16.0,5.1,-5.0,91,80,64,30.25,29.70,12,4,23,0.00
2013-1-19,30.0,22.5,18.0,28.0,19.3,14.0,92,88,70,29.73,29.37,20,5,42,0.00
2013-1-20,18.0,10.1,2.0,17.0,4.6,-8.0,92,78,56,30.09,29.52,19,12,44,0.00
2013-1-21,3.0,-0.9,-7.0,-7.0,-10.4,-18.0,79,63,51,30.04,29.91,17,11,30,0.00
2013-1-22,1.0,-3.6,-7.0,-4.0,-9.3,-12.0,82,76,65,30.16,30.03,17,12,28,0.00
2013-1-23,15.0,3.7,-7.0,13.0,-2.9,-14.0,91,74,47,30.27,29.94,19,6,34,0.00
2013-1-24,13.0,9.1,4.0,7.0,2.4,-2.0,88,74,52,30.55,30.25,14,6,31,0.00
2013-1-25,21.0,13.4,8.0,14.0,8.7,2.0,90,81,65,30.34,29.86,8,4,15,0.00
2013-1-26,24.0,20.5,15.0,21.0,15.4,12.0,91,80,69,30.30,29.96,13,5,28,0.00
2013-1-27,23.0,21.6,20.0,18.0,15.5,13.0,83,76,71,30.27,30.15,12,7,25,0.00
2013-1-28,34.0,30.8,28.0,32.0,29.2,27.0,96,93,89,29.91,29.79,7,1,11,0.00
2013-1-29,37.0,33.5,31.0,37.0,32.1,29.0,98,95,91,29.86,29.43,12,5,29,0.00
2013-1-30,34.0,26.6,18.0,32.0,23.7,16.0,96,89,77,29.52,29.27,21,12,37,0.00
2013-1-31,18.0,15.1,13.0,17.0,11.6,7.0,93,85,71,29.82,29.28,18,12,34,0.00